[[{"header":{"parameterUnit":"m.s-1","parameterCategory":1,"la1":30.2991,"la2":30.254,"lo1":-89.0895,"lo2":-89.0444,"dy":0.0017,"dx":0.0017,"nx":28,"ny":28,"refTime":"2024-05-17T09:00:00:Z","depth":0,"parameterNumber":2,"parameterNumberName":"U-component_of_WINDS"},"data":[0,0,0,0,0,0,0,0,0,0,0,0,0,0,0,0,0,0,0,0,0,0,0,0,0,0,0,0,0,0,0,0,0,0,0,0,0,0,0,0,0,0,0,0,0,0,0,0,0,0,0,0,0,0,0,0,0,0,-5.6524,-5.6526,0,-5.673,-5.6732,-5.6735,-5.6659,-5.6654,-5.6649,-5.6645,-5.687,-5.688,-5.6891,0,0,0,0,0,0,0,0,0,0,0,0,0,-5.6077,-5.6086,-5.6523,-5.6526,-5.6529,-5.6729,-5.6732,-5.6735,-5.6659,-5.6654,-5.6648,-5.6643,-5.6867,-5.6879,-5.6892,0,0,0,0,0,0,0,0,0,0,0,0,0,-5.6276,-5.6088,-5.6523,-5.6515,-5.6516,-5.6729,-5.6732,-5.6736,-5.6661,-5.6653,-5.6646,-5.664,-5.6863,-5.6878,-5.6893,-5.7131,0,0,-5.6941,-5.6948,0,0,0,0,0,0,0,0,-5.6265,-5.6293,-5.6513,-5.6516,-5.6517,-5.6661,-5.6657,-5.6869,-5.6662,-5.6606,-5.6645,-5.6636,-5.6807,-5.6827,-5.6882,-5.7142,-5.7152,-5.6942,-5.6952,-5.6959,-5.6963,0,0,0,0,0,0,0,-5.6251,-5.6284,-5.6605,-5.6517,-5.6519,-5.6505,-5.6525,-5.6697,-5.6745,-5.6611,-5.6605,-5.663,-5.6807,-5.6867,-5.6887,-5.7155,-5.6942,-5.6956,-5.6966,-5.6972,-5.762,-5.7628,0,0,0,0,0,0,-5.6235,-5.6273,-5.6599,-5.6612,-5.6371,-5.6519,-5.6541,-5.6622,-5.6742,-5.6753,-5.6636,-5.6626,-5.6844,-5.6868,-5.6894,-5.718,-5.6959,-5.6973,-5.6982,-5.7613,-5.7622,-5.7631,0,0,0,0,0,0,-5.6226,-5.6265,-5.6591,-5.6441,-5.6481,-5.6534,-5.6625,-5.663,-5.6689,-5.6761,-5.6771,-5.6687,-5.6839,-5.6872,-5.7072,-5.7187,-5.698,-5.6994,-5.7603,-5.7615,-5.7626,-5.7753,0,0,0,0,0,0,-5.6213,-5.6262,-5.635,-5.6443,-5.6489,-5.6761,-5.6632,-5.6639,-5.6715,-5.6703,-5.6812,-5.6823,-5.6836,-5.7049,-5.7087,-5.7204,-5.7007,-5.7593,-5.7609,-5.7623,-5.7739,-5.7768,-5.7793,0,0,0,0,0,-5.6197,-5.6381,-5.6354,-5.6394,-5.6599,-5.6768,-5.6795,-5.6802,-5.6724,-5.6815,-5.6861,-5.682,-5.7168,-5.707,-5.7113,-5.7236,-5.7586,-5.7604,-5.7621,-5.7727,-5.7762,-5.7792,0,0,0,0,0,0,-5.6305,-5.6393,-5.6365,-5.6583,-5.6668,-5.6755,-5.6869,-5.6839,-5.6952,-5.6937,-5.6945,-5.697,-5.7176,-5.7226,-5.7116,-5.7472,-5.7366,-5.7393,-5.7432,-5.7466,-5.7492,-5.7476,-5.702,0,0,0,0,0,-5.6353,-5.6478,-5.655,-5.6736,-5.6779,-5.6817,-5.6891,-5.6888,-5.6979,-5.7016,-5.7076,-5.717,-5.7299,-5.7386,-5.7509,-5.7746,-5.7769,-5.7852,-5.7879,-5.79,-5.7924,-5.8053,-5.8091,-5.7689,-5.7689,-5.7688,0,0,-5.6456,-5.6519,-5.6598,-5.6759,-5.6824,-5.6957,-5.6848,-5.6994,-5.7093,-5.704,-5.7229,-5.7278,-5.7383,-5.7601,-5.7701,-5.765,-5.804,-5.7923,-5.794,-5.7952,-5.8075,-5.8113,-5.8147,-5.7701,-5.7699,-5.7697,0,0,-5.671,-5.677,-5.693,-5.6997,-5.7095,-5.7119,-5.7158,-5.7249,-5.7277,-5.7467,-5.7429,-5.7551,-5.7775,-5.785,-5.7918,-5.82,-5.8166,-5.824,-5.8381,-5.8506,-5.8538,-5.8566,-5.8667,-5.8703,-5.8264,-5.8264,-5.8264,0,-5.6826,-5.702,-5.7018,-5.7165,-5.7238,-5.719,-5.7354,-5.7421,-5.7558,-5.7611,-5.755,-5.7828,-5.7896,-5.8132,-5.82,-5.8256,-5.8303,-5.8228,-5.8532,-5.8561,-5.8587,-5.8683,-5.8721,-5.8272,-5.8271,-5.827,-5.827,0,-5.7158,-5.7294,-5.7412,-5.7539,-5.7625,-5.7781,-5.7806,-5.7894,-5.7884,-5.7916,-5.8111,-5.8189,-5.8328,-5.8384,-5.8378,-5.8619,-5.8584,-5.8528,-5.8422,-5.8634,-5.8724,-5.8761,-5.8284,-5.8281,-5.8279,-5.8277,0,0,-5.7487,-5.7608,-5.7652,-5.7708,-5.7813,-5.792,-5.8075,-5.8205,-5.8281,-5.8377,-5.8508,-5.8698,-5.8646,-5.8723,-5.8726,-5.8836,-5.9053,-5.8767,-5.8769,-5.8817,-5.9325,-5.9366,-5.9408,-5.9031,-5.9038,-5.9044,-5.9316,0,-5.7749,-5.8014,-5.8017,-5.8263,-5.8389,-5.8345,-5.848,-5.8561,-5.8595,-5.871,-5.8749,-5.8882,-5.8804,-5.885,-5.8957,-5.9004,-5.9156,-5.8985,-5.9157,-5.9163,-5.9131,-5.9455,-5.95,-5.9752,-5.9351,-5.9357,-5.9361,0,-5.809,-5.8191,-5.8448,-5.8533,-5.8586,-5.8707,-5.8826,-5.8936,-5.9028,-5.9045,-5.913,-5.9115,-5.9276,-5.9163,-5.9387,-5.9271,-5.9342,-5.9376,-5.9386,-5.9403,-5.9275,-5.9481,-5.9833,-5.9871,-5.9417,-5.9413,-5.9409,0,-5.8304,-5.8505,-5.8684,-5.8734,-5.8838,-5.8924,-5.8972,-5.9057,-5.9134,-5.9241,-5.9291,-5.9417,-5.9486,-5.9585,-5.9606,-5.9522,-5.983,-5.9719,-5.9851,-5.9851,-5.9919,-5.9914,-6.0287,-5.9965,-5.9964,-5.9963,-5.9962,0,-5.8596,-5.8756,-5.8781,-5.8891,-5.9069,-5.9072,-5.925,-5.9292,-5.9367,-5.9488,-5.946,-5.9575,-5.9594,-5.9715,-5.9733,-5.9916,-5.9948,-5.9968,-5.9971,-5.9971,-5.9968,-6.0018,-6.0001,-5.9973,-5.9971,-5.9969,-5.9967,0,-5.8865,-5.8888,-5.908,-5.9161,-5.9185,-5.9313,-5.9385,-5.9493,-5.9521,-5.9675,-5.9712,-5.976,-5.99,-5.9929,-6.0098,-6.011,-6.0327,-6.0313,-6.0294,-6.0293,-6.0423,-6.041,-6.0841,-6.0897,-6.0538,-6.0541,-6.0544,0,-5.9049,-5.917,-5.9262,-5.9338,-5.9389,-5.9513,-5.9591,-5.96,-5.9683,-5.9796,-5.9891,-6.0027,-6.0136,-6.0363,-6.0415,-6.0544,-6.0533,-6.0674,-6.0552,-6.0548,-6.0535,-6.0527,-6.054,-6.0698,-6.0702,-6.0705,-6.0708,0,-5.9375,-5.938,-5.949,-5.9605,-5.9697,-5.979,-5.9878,-5.9944,-5.9964,-6.006,-6.02,-6.0284,-6.0453,-6.0589,-6.0717,-6.0771,-6.0745,-6.0745,-6.0783,-6.0784,-6.0768,-6.0778,-6.0358,-6.0736,-6.0733,-6.0731,-6.073,-6.0728,-5.9607,-5.9712,-5.9792,-5.9917,-5.9983,-6.0065,-6.0169,-6.021,-6.0325,-6.046,-6.0459,-6.0613,-6.0703,-6.0871,-6.0933,-6.1056,-6.1012,-6.1067,-6.108,-6.1094,-6.1105,-6.0748,-6.108,-6.1079,-6.1078,-6.1078,-6.1077,0,-5.9931,-5.998,-6.0094,-6.0215,-6.0314,-6.0274,-6.0369,-6.0456,-6.0589,-6.0673,-6.078,-6.0942,-6.1073,-6.1135,-6.1266,-6.1353,-6.1344,-6.1387,-6.1381,-6.1394,-6.1137,-6.1091,-6.1392,-6.1392,-6.1392,-6.1392,-6.1391,-6.1391,-6.0111,-6.0285,-6.03,-6.0508,-6.0557,-6.0703,-6.0761,-6.0838,-6.0904,-6.1084,-6.1191,-6.1229,-6.1305,-6.1441,-6.1561,-6.1576,-6.1626,-6.1675,-6.1685,-6.1444,-6.1412,-6.1382,-6.1339,-6.1686,-6.1687,-6.1931,-6.1934,-6.1935]},{"header":{"parameterUnit":"m.s-1","parameterCategory":1,"la1":30.2991,"la2":30.254,"lo1":-89.0895,"lo2":-89.0444,"dy":0.0017,"dx":0.0017,"nx":28,"ny":28,"refTime":"2024-05-17T09:00:00:Z","depth":0,"parameterNumber":3,"parameterNumberName":"V-component_of_WINDS"},"data":[0,0,0,0,0,0,0,0,0,0,0,0,0,0,0,0,0,0,0,0,0,0,0,0,0,0,0,0,0,0,0,0,0,0,0,0,0,0,0,0,0,0,0,0,0,0,0,0,0,0,0,0,0,0,0,0,0,0,-1.424,-1.4241,0,-1.4319,-1.432,-1.4321,-1.4261,-1.4258,-1.4256,-1.4253,-1.4347,-1.4352,-1.4357,0,0,0,0,0,0,0,0,0,0,0,0,0,-1.4046,-1.405,-1.424,-1.4241,-1.4242,-1.4319,-1.432,-1.4321,-1.4261,-1.4258,-1.4255,-1.4252,-1.4345,-1.4351,-1.4357,0,0,0,0,0,0,0,0,0,0,0,0,0,-1.4129,-1.4051,-1.424,-1.4221,-1.422,-1.4319,-1.432,-1.4322,-1.4262,-1.4258,-1.4254,-1.425,-1.4343,-1.4351,-1.4358,-1.4483,0,0,-1.4381,-1.4384,0,0,0,0,0,0,0,0,-1.4124,-1.4136,-1.4223,-1.4223,-1.4222,-1.4276,-1.4286,-1.4376,-1.4263,-1.4247,-1.4253,-1.4249,-1.4327,-1.4336,-1.436,-1.4488,-1.4492,-1.4381,-1.4386,-1.4389,-1.4391,0,0,0,0,0,0,0,-1.4119,-1.4132,-1.4272,-1.4224,-1.4224,-1.4212,-1.4219,-1.4303,-1.4309,-1.4248,-1.4244,-1.4253,-1.4326,-1.4353,-1.4362,-1.4493,-1.4381,-1.4388,-1.4392,-1.4395,-1.4725,-1.4729,0,0,0,0,0,0,-1.4113,-1.4128,-1.4269,-1.4274,-1.4162,-1.4218,-1.4227,-1.4263,-1.4308,-1.431,-1.4256,-1.425,-1.4342,-1.4353,-1.4365,-1.4512,-1.4389,-1.4396,-1.44,-1.4721,-1.4726,-1.4731,0,0,0,0,0,0,-1.4109,-1.4126,-1.4266,-1.42,-1.4217,-1.4226,-1.4267,-1.4266,-1.4292,-1.4314,-1.4316,-1.4282,-1.4339,-1.4354,-1.4453,-1.4515,-1.4399,-1.4406,-1.4716,-1.4722,-1.4728,-1.4809,0,0,0,0,0,0,-1.4104,-1.4125,-1.4171,-1.4201,-1.422,-1.435,-1.4271,-1.4271,-1.4304,-1.4296,-1.4338,-1.4341,-1.4337,-1.4442,-1.446,-1.4523,-1.4412,-1.471,-1.4719,-1.4726,-1.4801,-1.4818,-1.4832,0,0,0,0,0,-1.4097,-1.4194,-1.4174,-1.4191,-1.4277,-1.4354,-1.4365,-1.4355,-1.4309,-1.4356,-1.4369,-1.434,-1.4505,-1.4452,-1.4472,-1.4538,-1.4706,-1.4716,-1.4726,-1.4794,-1.4814,-1.4831,0,0,0,0,0,0,-1.4176,-1.4198,-1.4175,-1.4284,-1.4317,-1.4343,-1.4402,-1.4377,-1.4427,-1.4418,-1.4407,-1.4418,-1.452,-1.454,-1.4481,-1.4661,-1.4599,-1.4613,-1.4644,-1.4663,-1.4678,-1.4672,-1.4418,0,0,0,0,0,-1.4205,-1.4262,-1.428,-1.4374,-1.4391,-1.4394,-1.4427,-1.4416,-1.4451,-1.4466,-1.4487,-1.4525,-1.4585,-1.4626,-1.4683,-1.4803,-1.4812,-1.4859,-1.4874,-1.4886,-1.4899,-1.4963,-1.4983,-1.4762,-1.4762,-1.4762,0,0,-1.4268,-1.4287,-1.4324,-1.439,-1.4414,-1.4476,-1.4406,-1.4475,-1.4521,-1.4478,-1.457,-1.4587,-1.4629,-1.4738,-1.4788,-1.4758,-1.4962,-1.4899,-1.4909,-1.4914,-1.4975,-1.4996,-1.5014,-1.4769,-1.4768,-1.4767,0,0,-1.4413,-1.4433,-1.4512,-1.4536,-1.4571,-1.4572,-1.4591,-1.462,-1.4628,-1.4719,-1.4687,-1.4744,-1.4848,-1.4878,-1.4908,-1.506,-1.5035,-1.508,-1.516,-1.5223,-1.524,-1.5255,-1.5309,-1.5328,-1.5092,-1.5093,-1.5093,0,-1.4487,-1.4575,-1.4557,-1.4626,-1.4656,-1.4614,-1.4695,-1.4721,-1.4776,-1.4798,-1.4763,-1.489,-1.4916,-1.5031,-1.5067,-1.5093,-1.5115,-1.5075,-1.5238,-1.5253,-1.5268,-1.5319,-1.5339,-1.5098,-1.5097,-1.5096,-1.5096,0,-1.4663,-1.4725,-1.4785,-1.4832,-1.4869,-1.4945,-1.494,-1.4981,-1.4966,-1.4971,-1.5065,-1.5093,-1.5154,-1.5181,-1.517,-1.5294,-1.5273,-1.5239,-1.5176,-1.5294,-1.5342,-1.5361,-1.5105,-1.5103,-1.5101,-1.51,0,0,-1.4862,-1.4894,-1.4917,-1.4936,-1.4971,-1.502,-1.5094,-1.5148,-1.5182,-1.5221,-1.5283,-1.537,-1.5336,-1.537,-1.5361,-1.5416,-1.5533,-1.5374,-1.5375,-1.5402,-1.5671,-1.5696,-1.5719,-1.5516,-1.552,-1.5523,-1.5667,0,-1.5006,-1.5129,-1.5114,-1.5233,-1.529,-1.5249,-1.5314,-1.5343,-1.535,-1.5401,-1.541,-1.5471,-1.5423,-1.5442,-1.5494,-1.5508,-1.5587,-1.5497,-1.5576,-1.5579,-1.5565,-1.5744,-1.5772,-1.5907,-1.5686,-1.5689,-1.5691,0,-1.5192,-1.523,-1.5354,-1.5376,-1.54,-1.5457,-1.5504,-1.5553,-1.5586,-1.5587,-1.5622,-1.5603,-1.568,-1.5615,-1.5721,-1.566,-1.5691,-1.5703,-1.5708,-1.5715,-1.5642,-1.5756,-1.595,-1.597,-1.5721,-1.5718,-1.5716,0,-1.5321,-1.5406,-1.5489,-1.5508,-1.5537,-1.5578,-1.5593,-1.5621,-1.5654,-1.5697,-1.5718,-1.5772,-1.5801,-1.5844,-1.5841,-1.5794,-1.5948,-1.5883,-1.5952,-1.5953,-1.5987,-1.5985,-1.6189,-1.6008,-1.6008,-1.6008,-1.6007,0,-1.5484,-1.5561,-1.5547,-1.5599,-1.5683,-1.5667,-1.5752,-1.5763,-1.5788,-1.5843,-1.5814,-1.5867,-1.5859,-1.5913,-1.5912,-1.5999,-1.6013,-1.6018,-1.6017,-1.602,-1.6019,-1.6041,-1.6031,-1.6013,-1.6012,-1.6011,-1.601,0,-1.5643,-1.5637,-1.5725,-1.5744,-1.575,-1.5812,-1.583,-1.588,-1.5882,-1.5952,-1.5968,-1.5974,-1.6035,-1.6036,-1.6108,-1.6107,-1.6213,-1.6202,-1.6201,-1.6198,-1.6267,-1.626,-1.6491,-1.6521,-1.6322,-1.6324,-1.6325,0,-1.5747,-1.5804,-1.5827,-1.5859,-1.5875,-1.5928,-1.5959,-1.5946,-1.598,-1.6021,-1.6066,-1.6124,-1.6169,-1.627,-1.6283,-1.6338,-1.6328,-1.6405,-1.6336,-1.6337,-1.6328,-1.6324,-1.633,-1.6418,-1.6421,-1.6422,-1.6424,0,-1.5931,-1.5924,-1.5968,-1.6011,-1.6048,-1.6083,-1.6115,-1.6144,-1.6134,-1.6175,-1.6234,-1.6269,-1.634,-1.6398,-1.645,-1.647,-1.6446,-1.6445,-1.6464,-1.6468,-1.6464,-1.6466,-1.6237,-1.644,-1.6438,-1.6437,-1.6436,-1.6436,-1.6065,-1.6112,-1.6135,-1.6185,-1.6206,-1.6236,-1.6282,-1.6289,-1.6337,-1.639,-1.638,-1.6447,-1.6478,-1.6545,-1.6568,-1.6623,-1.6596,-1.6624,-1.6631,-1.6638,-1.6645,-1.6455,-1.6633,-1.6632,-1.6632,-1.6631,-1.6631,0,-1.6246,-1.6257,-1.6303,-1.6346,-1.6386,-1.6354,-1.6388,-1.6424,-1.6481,-1.6511,-1.6554,-1.6623,-1.6678,-1.6694,-1.6749,-1.6789,-1.678,-1.6804,-1.6801,-1.6806,-1.6666,-1.6643,-1.681,-1.681,-1.681,-1.681,-1.681,-1.681,-1.6344,-1.6423,-1.6419,-1.6508,-1.652,-1.6581,-1.6603,-1.6631,-1.6653,-1.6729,-1.6773,-1.6781,-1.6806,-1.6861,-1.6911,-1.6915,-1.6937,-1.6965,-1.6965,-1.6834,-1.6816,-1.6799,-1.6777,-1.697,-1.697,-1.71,-1.7101,-1.7102]}]]